www.pogodaiklimat.ru

Погода и климат >> Архив погоды >> Индия >> Coimbatore


ПОГОДА в Coimbatore

  • Прогноз погоды в Coimbatore
  • Монитор погоды в Coimbatore
  • Климат города

АРХИВ ПОГОДЫ в Coimbatore

Время (UTC), дата Ветер
(напр.,м/с)
 
Видим.   Явления Облачность Т
(С)
Тd
(С)
f
(%)
Тe
(С)
Тes
(С)
Комфортность P
(гПа)
Po
(гПа)
Тmin
(С)
Tmax
(С)
R
(мм)
R24
(мм)
S
(см)
03 18.06 Ю 5 4000 м мгла 6/3 450 м
[Sc Ac trans Ci fib]
+27.0 +22.6 77 +36 +38 очень
душно
1010.0 965.7 +23.4 +29.6
06 18.06 Ю 5 4000 м мгла 8/3 450 м
[Sc Ac trans Ci fib]
+30.8 +21.6 58 +39 +44 очень
душно
1009.3 965.6
09 18.06 ЮЗ 8 4000 м мгла 6/3 450 м
[Sc Ac trans Ci fib]
+31.8 +21.1 53 +39 +41 очень
душно
1006.9 963.5
12 18.06 Ю 7 4000 м мгла 6/3 300 м
[Sc Ac trans Ci fib]
+29.0 +21.6 64 +37 +37 очень
душно
1007.3 963.4 +32.4
15 18.06 Ю 5 4000 м мгла 6/3 450 м
[Sc Ac trans Ci fib]
+26.2 +21.4 75 +33 +33 очень
душно
1009.3 965.0
18 18.06 Ю 5 4000 м дымка 6/3 450 м
[Sc Ac trans Ci fib]
+25.4 +21.8 80 +33 +33 очень
душно
1009.7 965.2
21 18.06 ЮЗ 5 4000 м дымка 8/4 450 м
[Sc Ac trans Ci fib]
+24.6 +21.0 80 +31 +31 очень
душно
1008.3 963.7
00 19.06 ЮЗ 4 4000 м дымка 8/4 450 м
[Sc Ac trans Ci fib]
+24.6 +21.0 80 +31 +31 очень
душно
1008.4 963.8
03 19.06 ЮЗ 8 4000 м мгла 8/4 450 м
[Sc Ac trans Ci fib]
+26.4 +20.3 69 +33 +33 очень
душно
1009.6 965.2 +23.3 +33.4
06 19.06 Ю 7 4000 м мгла 5/4 450 м
[Sc Ac trans Ci fib]
+29.4 +21.0 61 +37 +40 очень
душно
1007.7 964.0
09 19.06 ЮЗ 7 4000 м мгла 6/3 450 м
[Cu Sc Ac trans Ci fib]
+31.0 +18.7 48 +36 +38 очень
душно
1006.0 962.4
12 19.06 ЮЗ 7 4000 м мгла 5/1 450 м
[Sc Ac trans Ci fib]
+29.0 +19.2 55 +34 +35 очень
душно
1006.3 962.4 +31.4
15 19.06 Ю 7 4000 м в посл. час морось 8/3 450 м
[Sc Ac trans Ci fib]
+23.6 +20.9 85 +30 +30 очень
душно
1009.1 964.4 0.0
18 19.06 ЮЗ 5 4000 м слабая морось 8/3 450 м
[Sc Ac trans Ci fib]
+23.8 +21.7 88 +30 +30 очень
душно
1009.1 964.4 0.0
21 19.06 Ю 5 4000 м дымка {морось} 9/4 300 м
[St Ac trans Ci fib]
+23.4 +21.3 88 +31 +31 очень
душно
1007.7 963.0 0.0
00 20.06 Ю 5 4000 м дымка {морось} 8/3 450 м
[Sc Ac trans Ci fib]
+23.4 +21.0 86 +31 +31 очень
душно
1007.5 962.9 0.0
03 20.06 Ю 5 4000 м мгла 9/4 360 м
[Sc Ac trans Ci fib]
+25.8 +21.0 75 +32 +34 очень
душно
1008.8 964.4 +22.7 +31.4 0.0
06 20.06 Ю 6 4000 м слабая морось 9/4 360 м
[Sc diur, vesp Ac trans Ci fib]
+27.6 +21.3 69 +35 +38 очень
душно
1008.2 964.1 0.0
09 20.06 Ю 7 4000 м слабая морось 9/4 450 м
[Sc diur, vesp Ac trans Ci fib]
+27.4 +21.4 70 +35 +36 очень
душно
1006.5 962.4 0.0
12 20.06 Ю 7 4000 м мгла {морось} 9/4 450 м
[Sc diur, vesp Ac trans Ci fib]
+26.0 +22.1 79 +34 +34 очень
душно
1006.3 962.0 +28.8 0.0
15 20.06 Ю 7 4000 м мгла 9/4 450 м
[Sc diur, vesp Ac trans]
+24.2 +21.5 85 +31 +31 очень
душно
1008.0 963.4 0.0
18 20.06 Ю 3 4000 м дымка 8/4 450 м
[Sc Ac trans]
+24.0 +21.9 88 +31 +31 очень
душно
1008.3 963.6 0.0
21 20.06 Ю 4 4000 м дымка 8/4 450 м
[Sc Ac trans Ci fib]
+23.8 +22.3 91 +31 +31 очень
душно
1006.8 962.2 0.0
00 21.06 Ю 5 4000 м дымка 9/5 360 м
[Sc Ac trans]
+23.2 +22.0 93 +32 +32 очень
душно
1007.1 962.5 0.0
03 21.06 Ю 4 4000 м в посл. час морось 9/4 450 м
[Sc Ac trans Ci fib]
+25.2 +21.6 80 +32 +34 очень
душно
1008.5 964.1 +22.8 +28.8 0.0
06 21.06 Ю 6 4000 м мгла 9/4 450 м
[Sc diur, vesp Ac trans Ci fib]
+28.4 +21.5 66 +36 +39 очень
душно
1007.7 963.8
09 21.06 Ю 8 4000 м мгла 9/4 450 м
[Sc Ac trans Ci fib]
+29.6 +21.9 63 +38 +39 очень
душно
1006.1 962.4
12 21.06 Ю 6 4000 м мгла 9/4 450 м
[Sc Ac trans Ci fib]
+25.8 +21.9 79 +33 +33 очень
душно
1005.8 961.3 +29.8
15 21.06 Ю 5 4000 м мгла 9/4 450 м
[Sc Ac trans Ci fib]
+24.4 +20.7 80 +30 +30 очень
душно
1007.4 962.9
18 21.06 Ю 5 4000 м дымка 6/3 450 м
[Sc Ac trans Ci fib]
+23.4 +20.0 81 +30 +30 очень
душно
1008.0 963.4
21 21.06 Ю 3 4000 м дымка 6/3 450 м
[Sc Ac trans Ci fib]
+23.0 +20.5 86 +30 +30 очень
душно
1007.4 962.6
00 22.06 Ю 3 4000 м дымка 6/3 450 м
[Sc Ac trans Ci fib]
+22.8 +20.7 88 +30 +30 очень
душно
1007.5 962.7
03 22.06 ЮЗ 3 4000 м мгла 8/3 450 м
[Sc Ac trans Ci fib]
+26.8 +20.7 69 +33 +36 очень
душно
1008.2 963.9 +22.3 +29.8
06 22.06 Ю 7 4000 м мгла 6/3 450 м
[Sc Ac trans Ci fib]
+30.2 +21.9 61 +39 +42 очень
душно
1007.8 964.1
09 22.06 Ю 10 4000 м мгла 9/4 450 м
[Cu Sc Ac trans Ci fib]
+28.8 +21.3 64 +36 +37 очень
душно
1006.2 962.3
12 22.06 Ю 8 4000 м мгла {дождь, морось} 9/4 450 м
[Cu Sc Ac trans Ci fib]
+25.4 +21.8 80 +33 +33 очень
душно
1006.1 961.8 +31.4 0.2
15 22.06 Ю 5 4000 м мгла 8/4 450 м
[Sc Ac trans]
+24.0 +21.9 88 +31 +31 очень
душно
1007.5 962.9 0.2
18 22.06 Ю 3 4000 м мгла 8/4 450 м
[Sc Ac trans]
+23.8 +21.1 85 +30 +30 очень
душно
1008.1 963.4 0.2
21 22.06 Ю 5 4000 м дымка 8/3 450 м
[Sc Ac trans Ci fib]
+23.4 +21.0 86 +31 +31 очень
душно
1006.5 961.9 0.2
00 23.06 Ю 5 4000 м дымка {морось} 9/3 450 м
[Sc Ac trans Ci fib]
+23.0 +21.2 90 +31 +31 очень
душно
1007.3 962.5 0.2
03 23.06 Ю 3 4000 м в посл. час морось 9/4 300 м
[St Ac trans Ci fib]
+25.0 +21.7 82 +32 +34 очень
душно
1009.2 964.6 +22.4 +31.4 0.2
06 23.06 Ю 4 4000 м мгла {морось} 8/4 360 м
[Sc Ac trans Ci fib]
+28.8 +21.0 63 +36 +41 очень
душно
1007.7 963.8
09 23.06 Ю 5 4000 м мгла 9/4 450 м
[Sc Ac trans Ci fib]
+30.6 +21.4 58 +39 +41 очень
душно
1005.8 962.2
12 23.06 Ю 6 4000 м в посл. час морось 9/4 360 м
[Sc Ac trans Ci fib]
+25.6 +22.3 82 +33 +34 очень
душно
1006.3 962.0 +31.2 0.1
15 23.06 Ю 5 4000 м мгла 8/4 450 м
[Sc Ac trans Ci fib]
+25.2 +23.1 88 +34 +34 очень
душно
1007.7 963.4 0.1
18 23.06 Ю 3 4000 м мгла 6/3 450 м
[Sc Ac trans]
+24.2 +22.1 88 +31 +31 очень
душно
1009.0 964.4 0.1
21 23.06 Ю 3 4000 м дымка 5/3 450 м
[Sc Ac trans]
+23.8 +21.7 88 +30 +30 очень
душно
1007.8 963.2 0.1
00 24.06 Ю 3 4000 м дымка 6/3 450 м
[Sc Ac trans Ci fib]
+23.0 +21.5 91 +31 +31 очень
душно
1008.1 963.3 0.1
03 24.06 Ю 4 4000 м мгла 4/1 450 м
[Sc Ci fib]
+26.0 +21.8 78 +33 +37 очень
душно
1008.8 964.4 +22.3 +31.2 0.1
06 24.06 Ю 6 4000 м мгла 5/1 450 м
[Sc Ci fib]
+30.8 +21.3 57 +39 +45 очень
душно
1007.8 964.1
09 24.06 ЮЗ 8 4000 м мгла 8/4 450 м
[Sc Ac trans Ci fib]
+31.0 +19.4 50 +37 +38 очень
душно
1005.8 962.1
12 24.06 ЮЗ 7 4000 м мгла 9/4 450 м
[Sc Ac trans Ci fib]
+28.0 +19.7 61 +34 +34 очень
душно
1006.2 962.1 +32.4
15 24.06 ЮЗ 6 4000 м мгла 9/4 450 м
[Sc Ac trans]
+25.8 +20.3 72 +32 +32 очень
душно
1008.3 963.9
18 24.06 Ю 4 4000 м мгла 6/3 450 м
[Sc Ac trans]
+24.6 +21.3 82 +31 +31 очень
душно
1009.7 965.0
21 24.06 Ю 5 4000 м мгла 4/1 450 м
[Sc Ac trans Ci fib]
+23.6 +22.1 91 +30 +30 очень
душно
1008.2 963.5

 

Местоположение метеостанции Coimbatore (Tamil Nadu, Индия): широта 11.03 долгота 77.05 высота над уровнем моря 399 м.

В архиве по умолчанию представлена погода в Coimbatore за последнюю неделю. Архивные данные за месяц целиком и за предыдущие месяцы, начиная с января 2011 года, Вы можете получить, выбрав интересующий диапазон дат из раскрывающегося списка и нажав кнопку "Ввод!".


*Определитесь, кто Вы:
робот инопланетянин человек

Внимание! Время в таблицах - всемирное. Для получения местного времени необходимо прибавить поправку, которая в Coimbatore равна 5.5 ч.

Смотрите также архив погоды в соседних городах и на ближайших метеорологических станциях:

Погода в Coonoor (Tamil Nadu, Индия) (45 км)
Погода в Palakkad (Kerala, Индия) (52 км)
Погода в Udhagamandalam (Tamil Nadu, Индия) (54 км)
Погода в Valparai (Tamil Nadu, Индия) (84 км)
Погода в Kodaikanal (Tamil Nadu, Индия) (100 км)
Погода в Chamarajnagar (Karnataka, Индия) (101 км)
Погода в Thrissur (Kerala, Индия) (107 км)
Погода в Paramathy (Tamil Nadu, Индия) (113 км)
Погода в Periakulam (Tamil Nadu, Индия) (115 км)
Погода в Karipur (Kerala, Индия) (121 км)

Пояснения к столбцам:

Ветер - указаны скорость ветра в м/с - средняя за 10 мин, порывы в срок и между сроками (в фигурных скобках) и направление, откуда дует ветер: С - северный, СВ - северо-восточный, В - восточный, ЮВ - юго-восточный, Ю - южный, ЮЗ - юго-западный, З - западный, СЗ - северо-западный.
Видимость - горизонтальная дальность видимости в метрах или километрах. При видимости от 1 до 10 км при отсутствии осадков обычно наблюдается дымка, при ухудшении видимости до 1 км и менее - туман. В сухую погоду видимость может ухудшаться дымом, пылью или мглою.
Явления - указаны атмосферные явления, наблюдавшиеся в срок или в последний час перед сроком; фигурными скобками обозначены явления, наблюдавшиеся между сроками (за 1-3 часа до срока); квадратными скобками обозначены град или гололедные отложения с указанием их диаметра в мм.
Облачность - указаны через наклонную черту общая и нижняя облачность в баллах и высота нижней границы облаков в метрах; квадратными скобками обозначены формы облаков: Ci - перистые, Cs - перисто-слоистые, Cc - перисто-кучевые, Ac - высококучевые, As - высокослоистые, Sc - слоисто-кучевые, Ns - слоисто-дождевые, Cu - кучевые, Cb - кучево-дождевые. Подробнее классификацию облаков см. в Атласе облаков (PDF).
T - Температура воздуха - температура, измеренная на высоте 2 м над землей.
Td - Температура точки росы - температура, при понижении до которой содержащийся в воздухе водяной пар достигнет насыщения.
f - Относительная влажность воздуха - влажноcть воздуха, измеренная на высоте 2 м над землей.
Te - Эффективная температура - температура, которую ощущает одетый по сезону человек в тени. Характеристика душности погоды. При расчете учитывается влияние влажности воздуха и скорости ветра на теплоощущения человека.
Tes - Эффективная температура на солнце - температура, которую ощущает человек, с поправкой на солнечный нагрев. Характеристика знойности погоды. Зависит от высоты солнца над горизонтом, облачности и скорости ветра. Ночью, в пасмурную погоду, а также при ветре 12 м/с и более поправка равна нулю.
P - Атмосферное давление - приведенное к уровню моря атмосферное давление.
Po - Атмосферное давление - измеренное на уровне метеостанции атмосферное давление.
Tmin - Минимальная температура - минимум температуры воздуха на высоте 2 м над землей.
Tmax - Максимальная температура - максимум температуры воздуха на высоте 2 м над землей.
R - Количество осадков - Количество выпавших осадков за период времени, мм. При наведении курсора мыши на число - период времени, за который выпало указанное количество осадков.
R24 - Количество осадков - Количество выпавших осадков за 24 часа, мм.
S - Снежный покров - Высота снежного покрова, см. При наведении курсора мыши на число - состояние снежного покрова и степень покрытия местности в баллах.